GW7064 Weather Reports


Display with metric or nautical units.
time (UTC)temp
F
wind
direction
speed
MPH
gust
MPH
rain 1hr
in
rain 24hr
in
rain mn
in
humidity
%
barometer
mb
20260507111757 44 283 0.0 0.0 0.00 0.00 0.00 89 1007.9
20260507111257 43 151 1.0 2.0 0.00 0.00 0.00 96 1007.9
20260507110756 43 119 1.0 2.0 0.00 0.00 0.00 96 1007.9
20260507110256 42 161 1.0 1.0 0.00 0.00 0.00 97 1007.9
20260507105756 42 0 0.0 0.0 0.00 0.00 0.00 97 1007.9
20260507105256 42 27 0.0 0.0 0.00 0.00 0.00 96 1007.8
20260507104757 42 120 0.0 0.0 0.00 0.00 0.00 96 1007.7
20260507104257 42 85 1.0 2.0 0.00 0.00 0.00 96 1007.6
20260507103757 42 52 1.0 2.0 0.00 0.00 0.00 96 1007.7
20260507103257 42 71 1.0 1.0 0.00 0.00 0.00 96 1007.6
20260507102756 42 82 1.0 1.0 0.00 0.00 0.00 95 1007.7
20260507102257 42 78 1.0 2.0 0.00 0.00 0.00 95 1007.7
20260507101756 42 61 2.0 2.0 0.00 0.00 0.00 94 1007.7
20260507101256 41 117 0.0 0.0 0.00 0.00 0.00 95 1007.7
20260507100757 41 100 2.0 2.0 0.00 0.00 0.00 95 1007.6
20260507100257 42 77 2.0 2.0 0.00 0.00 0.00 95 1007.7
20260507095757 42 78 1.0 2.0 0.00 0.00 0.00 94 1008.0
20260507095256 43 63 0.0 1.0 0.00 0.00 0.00 93 1007.8
20260507094756 44 72 2.0 2.0 0.00 0.00 0.00 91 1007.8
20260507094256 45 65 1.0 2.0 0.00 0.00 0.00 86 1007.7
20260507093758 44 316 5.0 7.0 0.00 0.00 0.00 86 1007.8
20260507093256 43 296 2.0 3.0 0.00 0.00 0.00 92 1007.9
20260507092756 43 88 2.0 2.0 0.00 0.00 0.00 93 1007.8
20260507092258 42 262 0.0 0.0 0.00 0.00 0.00 95 1007.8
20260507091759 43 0 0.0 0.0 0.00 0.00 0.00 95 1008.0
20260507091257 43 102 1.0 2.0 0.00 0.00 0.00 95 1007.9
20260507090756 43 48 0.0 1.0 0.00 0.00 0.00 94 1008.1
20260507090258 43 75 1.0 1.0 0.00 0.00 0.00 94 1008.0
20260507085757 43 77 0.0 1.0 0.00 0.00 0.00 94 1008.1
20260507085257 43 93 0.0 1.0 0.00 0.00 0.00 95 1008.0
20260507084757 43 40 0.0 0.0 0.00 0.00 0.00 95 1007.6
20260507084257 43 81 1.0 2.0 0.00 0.00 0.00 94 1007.6
20260507083756 43 74 1.0 1.0 0.00 0.00 0.00 95 1007.6
20260507083257 43 74 1.0 2.0 0.00 0.00 0.00 94 1007.6
20260507082757 43 38 1.0 1.0 0.00 0.00 0.00 94 1007.7
20260507082256 43 74 2.0 2.0 0.00 0.00 0.00 95 1007.6
20260507081757 43 57 1.0 1.0 0.00 0.00 0.00 95 1007.6
20260507081256 43 85 0.0 1.0 0.00 0.00 0.00 95 1007.4
20260507080757 43 124 1.0 1.0 0.00 0.00 0.00 95 1007.3
20260507080257 44 69 2.0 2.0 0.00 0.00 0.00 95 1007.1
20260507075756 44 83 2.0 2.0 0.00 0.00 0.00 95 1007.6
20260507075256 44 87 0.0 0.0 0.00 0.00 0.00 95 1007.4
20260507074757 44 144 1.0 2.0 0.00 0.00 0.00 95 1007.6
20260507074257 44 61 0.0 1.0 0.00 0.00 0.00 95 1007.7
20260507073756 44 152 1.0 2.0 0.00 0.00 0.00 95 1007.6
20260507073256 44 0 0.0 0.0 0.00 0.00 0.00 94 1007.3
20260507072756 44 139 2.0 2.0 0.00 0.00 0.00 94 1007.2
20260507072301 44 0 0.0 0.0 0.00 0.00 0.00 95 1007.2
20260507071757 44 154 0.0 1.0 0.00 0.00 0.00 94 1007.3
20260507071258 44 144 0.0 1.0 0.00 0.00 0.00 94 1007.1
20260507070759 44 60 1.0 2.0 0.00 0.00 0.00 93 1006.9
20260507070300 45 71 1.0 1.0 0.00 0.00 0.00 92 1006.9
20260507065756 45 90 0.0 1.0 0.00 0.00 0.00 92 1006.9
20260507065257 45 81 0.0 0.0 0.00 0.00 0.00 90 1006.8
20260507064756 46 74 1.0 2.0 0.00 0.00 0.00 88 1006.8
20260507064256 46 156 0.0 1.0 0.00 0.00 0.00 87 1007.1
20260507063757 46 63 0.0 0.0 0.00 0.00 0.00 89 1006.7
20260507063256 46 117 2.0 3.0 0.00 0.00 0.00 87 1007.0
20260507062756 46 83 2.0 2.0 0.00 0.00 0.00 87 1007.1
20260507062256 47 319 1.0 1.0 0.00 0.00 0.00 85 1007.2
20260507061757 47 86 3.0 3.0 0.00 0.00 0.00 84 1007.0
20260507061256 47 317 2.0 2.0 0.00 0.00 0.00 86 1007.0
20260507060756 48 344 2.0 3.0 0.00 0.00 0.00 81 1006.9
20260507060258 48 313 3.0 4.0 0.00 0.00 0.00 81 1007.2
20260507055757 48 298 3.0 4.0 0.00 0.00 0.00 81 1006.9
20260507055257 48 322 2.0 4.0 0.00 0.00 0.00 82 1006.8
20260507054757 48 292 5.0 6.0 0.00 0.00 0.00 82 1006.9
20260507054304 48 299 4.0 5.0 0.00 0.00 0.00 82 1007.2
20260507053757 48 296 6.0 7.0 0.00 0.00 0.00 82 1007.3
20260507053256 47 289 4.0 5.0 0.00 0.00 0.00 83 1007.3
20260507052757 47 318 0.0 1.0 0.00 0.00 0.00 94 1007.4
20260507052256 47 304 2.0 3.0 0.00 0.00 0.00 94 1007.1
20260507051757 47 60 1.0 1.0 0.00 0.00 0.00 94 1007.0
20260507051256 46 305 1.0 1.0 0.00 0.00 0.00 91 1007.2
20260507050756 47 0 0.0 0.0 0.00 0.00 0.00 92 1007.0
20260507050257 47 115 0.0 0.0 0.00 0.00 0.00 91 1006.8
20260507045756 47 191 1.0 3.0 0.00 0.00 0.00 91 1006.8
20260507045256 47 104 1.0 2.0 0.00 0.00 0.00 95 1006.8
20260507044756 47 0 0.0 0.0 0.00 0.00 0.00 94 1007.1
20260507044257 47 82 0.0 0.0 0.00 0.00 0.00 93 1007.0
20260507043756 47 84 0.0 0.0 0.00 0.00 0.00 92 1007.1
20260507043257 48 172 2.0 2.0 0.00 0.00 0.00 92 1007.1
20260507042756 48 158 2.0 2.0 0.00 0.00 0.00 91 1007.0
20260507042256 48 98 0.0 1.0 0.00 0.00 0.00 88 1007.2
20260507041756 48 326 1.0 1.0 0.00 0.00 0.00 89 1007.2
20260507041257 49 286 1.0 3.0 0.00 0.00 0.00 89 1007.0
20260507040756 49 299 4.0 6.0 0.00 0.00 0.00 89 1007.1
20260507040256 49 290 4.0 6.0 0.00 0.00 0.00 88 1007.1
20260507035758 49 296 6.0 11.0 0.00 0.00 0.35 89 1006.9
20260507035256 49 305 7.0 9.0 0.00 0.00 0.35 87 1007.0
20260507034757 49 302 5.0 7.0 0.01 0.00 0.35 89 1007.0
20260507034256 49 305 3.0 6.0 0.01 0.00 0.35 90 1006.9
20260507033757 49 306 3.0 9.0 0.01 0.00 0.35 88 1007.0
20260507033257 49 302 4.0 7.0 0.02 0.00 0.35 88 1007.0
20260507032800 49 297 9.0 9.0 0.03 0.00 0.35 87 1007.1
20260507032256 49 303 8.0 10.0 0.03 0.00 0.34 90 1007.0
20260507031756 49 297 8.0 11.0 0.04 0.00 0.34 90 1006.9
20260507031256 49 307 5.0 8.0 0.04 0.00 0.34 91 1006.9
20260507030758 49 298 6.0 7.0 0.04 0.00 0.34 92 1006.8
20260507030256 50 304 5.0 7.0 0.04 0.00 0.34 91 1006.8
20260507025757 50 304 7.0 9.0 0.03 0.00 0.34 90 1006.9
20260507025256 50 305 5.0 7.0 0.03 0.00 0.33 91 1006.9
20260507024759 50 303 6.0 8.0 0.04 0.00 0.33 91 1006.9
20260507024257 50 300 5.0 6.0 0.02 0.00 0.33 89 1007.1
20260507023757 50 307 5.0 8.0 0.02 0.00 0.31 90 1007.1
20260507023258 51 309 5.0 6.0 0.02 0.00 0.31 91 1007.0
20260507022756 51 309 5.0 7.0 0.02 0.00 0.31 92 1007.0
20260507022257 51 308 6.0 7.0 0.02 0.00 0.29 92 1007.0
20260507021756 51 308 5.0 6.0 0.03 0.00 0.29 91 1007.0
20260507021256 51 308 4.0 7.0 0.03 0.00 0.29 92 1006.7
20260507020757 52 303 4.0 8.0 0.03 0.00 0.28 92 1006.7
20260507020258 52 298 3.0 4.0 0.03 0.00 0.28 92 1006.8
20260507015757 52 306 5.0 7.0 0.03 0.00 0.28 92 1006.8
20260507015258 52 311 4.0 6.0 0.03 0.00 0.27 91 1006.6
20260507014757 53 314 5.0 7.0 0.03 0.00 0.27 92 1006.5
20260507014256 53 316 3.0 4.0 0.03 0.00 0.27 94 1006.6
20260507013757 53 315 1.0 1.0 0.02 0.00 0.26 95 1006.3
20260507013256 53 276 1.0 1.0 0.01 0.00 0.26 96 1006.3
20260507012757 53 250 1.0 2.0 0.01 0.00 0.26 95 1006.3
20260507012256 53 197 1.0 2.0 0.01 0.00 0.25 94 1006.2
20260507011757 54 321 0.0 0.0 0.01 0.00 0.25 95 1006.1
20260507011300 54 305 0.0 1.0 0.01 0.00 0.25 96 1005.9
20260507010757 54 0 0.0 0.0 0.01 0.00 0.25 95 1005.8
20260507010257 54 211 2.0 2.0 0.01 0.00 0.25 95 1005.9
20260507005757 55 286 2.0 3.0 0.01 0.00 0.24 95 1005.7
20260507005256 55 102 0.0 2.0 0.01 0.00 0.24 93 1005.8
20260507004756 55 326 2.0 3.0 0.01 0.00 0.24 93 1005.7
20260507004256 55 286 3.0 4.0 0.01 0.00 0.24 92 1005.7
20260507003756 56 303 3.0 5.0 0.01 0.00 0.24 94 1005.5
20260507003256 56 300 3.0 4.0 0.01 0.00 0.24 95 1005.4
20260507002756 56 294 3.0 4.0 0.01 0.00 0.24 95 1005.3
20260507002256 57 310 3.0 6.0 0.01 0.00 0.24 94 1005.2
20260507001758 58 306 5.0 6.0 0.00 0.00 0.24 94 1005.0
20260507001257 58 306 5.0 7.0 0.00 0.00 0.24 94 1004.8
20260507000756 59 315 6.0 8.0 0.00 0.00 0.24 95 1004.7
20260507000259 58 328 1.0 2.0 0.00 0.00 0.24 97 1004.3
20260506235756 58 54 1.0 1.0 0.00 0.00 0.24 96 1004.2
20260506235257 59 220 1.0 2.0 0.00 0.00 0.24 96 1004.2
20260506234802 59 302 0.0 1.0 0.00 0.00 0.24 96 1004.1
20260506234257 59 0 0.0 0.0 0.00 0.00 0.24 96 1004.1
20260506233757 59 313 0.0 1.0 0.00 0.00 0.24 95 1004.1
20260506233257 59 327 1.0 2.0 0.00 0.00 0.24 96 1004.1
20260506232756 59 337 0.0 1.0 0.00 0.00 0.24 96 1004.1
20260506232256 59 311 1.0 2.0 0.00 0.00 0.24 96 1004.0
20260506231757 59 324 0.0 1.0 0.00 0.00 0.24 96 1004.1
20260506231256 59 53 2.0 2.0 0.00 0.00 0.24 96 1004.0
20260506230757 59 351 2.0 4.0 0.00 0.00 0.24 96 1004.0
20260506230258 59 319 1.0 1.0 0.00 0.00 0.24 95 1004.1
20260506225757 59 306 1.0 2.0 0.00 0.00 0.24 95 1004.0
20260506225256 59 282 1.0 3.0 0.00 0.00 0.24 95 1004.1
20260506224757 59 302 2.0 2.0 0.00 0.00 0.24 95 1004.1
20260506224256 59 351 1.0 3.0 0.00 0.00 0.24 95 1004.1
20260506223756 59 336 2.0 4.0 0.00 0.00 0.24 95 1004.1
20260506223256 59 31 1.0 2.0 0.00 0.00 0.24 95 1004.0
20260506222757 59 25 1.0 2.0 0.00 0.00 0.24 96 1004.0
20260506222256 59 347 2.0 2.0 0.00 0.00 0.24 95 1004.1
20260506221756 59 338 2.0 4.0 0.00 0.00 0.24 95 1004.2
20260506221256 59 326 3.0 5.0 0.00 0.00 0.24 94 1004.2
20260506220757 60 306 2.0 2.0 0.00 0.00 0.24 94 1004.2
20260506220257 60 18 3.0 6.0 0.00 0.00 0.23 95 1004.1
20260506215757 60 302 1.0 2.0 0.00 0.00 0.23 94 1004.2
20260506215257 60 7 0.0 1.0 0.00 0.00 0.23 93 1004.2
20260506214756 60 255 4.0 6.0 0.00 0.00 0.23 93 1004.2
20260506214259 60 301 4.0 5.0 0.00 0.00 0.23 93 1004.2
20260506213758 60 146 2.0 4.0 0.00 0.00 0.23 92 1004.3
20260506213256 60 266 3.0 6.0 0.00 0.00 0.23 93 1004.2
20260506212756 60 357 2.0 3.0 0.00 0.00 0.23 93 1004.2
20260506212256 61 286 3.0 5.0 0.00 0.00 0.23 92 1004.2
20260506211758 61 26 2.0 4.0 0.00 0.00 0.23 93 1004.2
20260506211257 61 26 2.0 3.0 0.00 0.00 0.23 92 1004.2
20260506210757 61 286 1.0 2.0 0.01 0.00 0.23 92 1004.2
20260506210259 61 283 3.0 7.0 0.01 0.00 0.23 91 1004.3
20260506205758 61 355 1.0 1.0 0.01 0.00 0.23 91 1004.2
20260506205257 61 301 1.0 2.0 0.01 0.00 0.23 91 1004.3
20260506204756 61 287 2.0 4.0 0.01 0.00 0.23 91 1004.2
20260506204258 61 309 1.0 2.0 0.01 0.00 0.23 91 1004.2
20260506203757 61 284 2.0 3.0 0.02 0.00 0.23 91 1004.3
20260506203258 61 39 2.0 4.0 0.03 0.00 0.23 92 1004.3
20260506202756 61 314 2.0 4.0 0.03 0.00 0.23 91 1004.3
20260506202256 61 0 1.0 2.0 0.04 0.00 0.24 92 1004.5
20260506201758 61 319 2.0 4.0 0.06 0.00 0.24 94 1004.4
20260506201256 61 333 2.0 3.0 0.06 0.00 0.24 94 1004.5
20260506200756 61 291 1.0 3.0 0.06 0.00 0.24 94 1004.5
20260506200258 61 354 1.0 3.0 0.06 0.00 0.22 94 1004.5
20260506195757 61 339 1.0 2.0 0.06 0.00 0.22 94 1004.5
20260506195256 61 328 0.0 1.0 0.07 0.00 0.22 94 1004.6
20260506194757 61 294 1.0 2.0 0.07 0.00 0.22 95 1004.6
20260506194256 60 20 1.0 3.0 0.07 0.00 0.22 95 1004.6
20260506193758 60 342 2.0 3.0 0.08 0.00 0.21 95 1004.7
20260506193256 60 26 1.0 3.0 0.07 0.00 0.21 95 1004.8
20260506192757 60 136 1.0 2.0 0.07 0.00 0.21 96 1004.8
20260506192256 60 123 2.0 3.0 0.07 0.00 0.21 95 1005.0
20260506191759 60 356 1.0 2.0 0.07 0.00 0.19 94 1005.1
20260506191257 61 22 2.0 4.0 0.07 0.00 0.19 94 1005.1
20260506190756 61 159 0.0 1.0 0.06 0.00 0.17 94 1005.1
20260506190256 61 348 0.0 1.0 0.06 0.00 0.16 94 1005.1
20260506185757 61 320 1.0 1.0 0.06 0.00 0.16 94 1005.1
20260506185257 61 34 1.0 3.0 0.07 0.00 0.15 95 1005.1
20260506184757 61 340 1.0 2.0 0.07 0.00 0.14 95 1005.2
20260506184300 61 340 0.0 1.0 0.07 0.00 0.14 94 1005.3
20260506183756 61 40 2.0 3.0 0.08 0.00 0.13 94 1005.3
20260506183300 61 334 1.0 3.0 0.08 0.00 0.13 94 1005.7
20260506182759 61 52 1.0 2.0 0.08 0.00 0.13 94 1005.7
20260506182257 61 328 1.0 3.0 0.08 0.00 0.12 96 1005.6
20260506181757 61 3 1.0 4.0 0.07 0.00 0.11 94 1005.7
20260506181258 61 336 0.0 2.0 0.07 0.00 0.11 95 1006.1
20260506180757 61 138 1.0 2.0 0.07 0.00 0.10 95 1006.1
20260506180257 61 328 2.0 5.0 0.07 0.00 0.10 93 1006.1
20260506175756 61 290 2.0 3.0 0.07 0.00 0.09 93 1006.2
20260506175258 61 3 1.0 2.0 0.05 0.00 0.09 93 1006.2
20260506174756 61 336 0.0 2.0 0.04 0.00 0.08 93 1006.3
20260506174257 61 62 2.0 3.0 0.04 0.00 0.07 92 1006.4
20260506173757 61 29 1.0 3.0 0.03 0.00 0.06 93 1006.5
20260506173258 61 18 2.0 6.0 0.03 0.00 0.05 91 1006.5
20260506172757 61 44 1.0 3.0 0.03 0.00 0.04 90 1006.5
20260506172257 61 324 1.0 2.0 0.03 0.00 0.04 88 1006.6
20260506171758 62 346 1.0 2.0 0.03 0.00 0.04 89 1006.6
20260506171258 62 312 2.0 3.0 0.02 0.00 0.03 88 1006.5
20260506170757 62 359 2.0 3.0 0.02 0.00 0.03 87 1006.5
20260506170257 63 335 1.0 2.0 0.02 0.00 0.02 86 1006.5
20260506165756 63 303 2.0 4.0 0.01 0.00 0.02 84 1006.6
20260506165256 64 332 2.0 3.0 0.01 0.00 0.02 83 1006.5
20260506164756 64 332 0.0 1.0 0.01 0.00 0.01 82 1006.5
20260506164256 64 333 1.0 2.0 0.01 0.00 0.01 83 1006.5
20260506163756 65 336 2.0 4.0 0.01 0.00 0.01 80 1006.4
20260506163258 65 267 3.0 9.0 0.00 0.00 0.01 77 1006.4
20260506162757 65 306 4.0 7.0 0.00 0.00 0.00 74 1006.5
20260506162256 65 289 4.0 6.0 0.00 0.00 0.00 75 1006.5
20260506161756 65 265 6.0 11.0 0.00 0.00 0.00 74 1006.6
20260506161257 65 261 4.0 7.0 0.00 0.00 0.00 75 1006.6
20260506160757 65 303 1.0 2.0 0.00 0.00 0.00 74 1006.7
20260506160256 65 261 6.0 10.0 0.00 0.00 0.00 74 1006.6
20260506155757 65 262 3.0 9.0 0.00 0.00 0.00 74 1006.7
20260506155258 65 258 3.0 10.0 0.00 0.00 0.00 74 1006.7
20260506154757 65 262 5.0 9.0 0.00 0.00 0.00 74 1006.9
20260506154258 65 303 3.0 4.0 0.00 0.00 0.00 75 1007.0
20260506153801 65 348 2.0 3.0 0.00 0.00 0.00 74 1007.2
20260506153256 65 248 2.0 6.0 0.00 0.00 0.00 75 1007.4
20260506152800 65 276 4.0 9.0 0.00 0.00 0.00 74 1007.4
20260506152256 65 32 3.0 9.0 0.00 0.00 0.00 74 1007.8
20260506151758 65 274 11.0 14.0 0.00 0.00 0.00 74 1007.8
20260506151256 65 314 2.0 7.0 0.00 0.00 0.00 73 1007.7
20260506150758 65 280 6.0 10.0 0.00 0.00 0.00 73 1007.6
20260506150304 65 263 7.0 10.0 0.00 0.00 0.00 74 1007.7
20260506145757 65 351 2.0 7.0 0.00 0.00 0.00 73 1007.6
20260506145257 65 278 3.0 6.0 0.00 0.00 0.00 74 1007.4
20260506144756 65 333 5.0 9.0 0.00 0.00 0.00 74 1007.4
20260506144257 65 259 5.0 11.0 0.00 0.00 0.00 74 1007.3
20260506143756 65 299 2.0 5.0 0.00 0.00 0.00 73 1007.3
20260506143259 65 274 4.0 9.0 0.00 0.00 0.00 73 1007.1
20260506142757 65 291 4.0 8.0 0.00 0.00 0.00 74 1007.3
20260506142258 65 263 4.0 9.0 0.00 0.00 0.00 73 1007.3
20260506141757 64 277 3.0 5.0 0.00 0.00 0.00 74 1007.2
20260506141257 64 152 2.0 2.0 0.00 0.00 0.00 75 1007.0
20260506140757 64 16 2.0 3.0 0.00 0.00 0.00 75 1007.1
20260506140258 63 292 3.0 4.0 0.00 0.00 0.00 75 1007.1
20260506135756 63 292 4.0 4.0 0.00 0.00 0.00 76 1007.2
20260506135257 63 212 3.0 4.0 0.00 0.00 0.00 76 1007.2
20260506134757 63 269 3.0 6.0 0.00 0.00 0.00 77 1007.3
20260506134257 62 262 4.0 5.0 0.00 0.00 0.00 77 1007.3
20260506133757 62 300 3.0 5.0 0.00 0.00 0.00 77 1007.3
20260506133259 62 299 4.0 6.0 0.00 0.00 0.00 77 1007.4
20260506132757 62 316 2.0 2.0 0.00 0.00 0.00 77 1007.6
20260506132257 62 314 2.0 3.0 0.00 0.00 0.00 77 1007.7
20260506131757 62 15 1.0 2.0 0.00 0.00 0.00 77 1007.7
20260506131258 62 277 3.0 5.0 0.00 0.00 0.00 77 1007.9
20260506130757 62 285 2.0 3.0 0.00 0.00 0.00 78 1008.0
20260506130258 62 282 4.0 5.0 0.00 0.00 0.00 78 1008.0
20260506125757 62 288 2.0 4.0 0.00 0.00 0.00 77 1008.0
20260506125256 62 287 3.0 3.0 0.00 0.00 0.00 78 1008.0
20260506124757 62 232 1.0 2.0 0.00 0.00 0.00 78 1007.7
20260506124256 62 306 3.0 4.0 0.00 0.00 0.00 78 1007.6
20260506123757 62 317 2.0 4.0 0.00 0.00 0.00 79 1007.7
20260506123257 62 262 2.0 4.0 0.00 0.00 0.00 78 1007.7
20260506122756 61 289 2.0 3.0 0.00 0.00 0.00 78 1007.7
20260506122257 61 279 1.0 3.0 0.00 0.00 0.00 78 1007.2
20260506121758 61 302 2.0 3.0 0.00 0.00 0.00 79 1007.4
20260506121256 61 264 2.0 4.0 0.00 0.00 0.00 79 1007.4
20260506120757 60 145 0.0 1.0 0.00 0.00 0.00 81 1007.4
20260506120256 59 61 1.0 2.0 0.00 0.00 0.00 81 1007.7
20260506115757 58 309 1.0 2.0 0.00 0.00 0.00 84 1007.8
20260506115259 58 42 2.0 3.0 0.00 0.00 0.00 84 1007.8
20260506114757 58 349 1.0 2.0 0.00 0.00 0.00 84 1007.9
20260506114257 58 255 1.0 2.0 0.00 0.00 0.00 84 1007.9
20260506113759 58 56 0.0 1.0 0.00 0.00 0.00 85 1007.9
20260506113256 57 138 0.0 1.0 0.00 0.00 0.00 86 1007.9
20260506112756 57 54 1.0 3.0 0.00 0.00 0.00 87 1007.9
20260506112256 56 127 1.0 2.0 0.00 0.00 0.00 88 1008.1